Peoria, IL

1:09 AM CDT on October 23, 2019 (GMT -0500)
Greater Peoria Regional

Weather History for KPIA - August, 2019

Change the Weather History Date:

Monday, August 12, 2019

  Actual Average Record
Temperature  
Mean Temperature 78 °F 74 °F  
Max Temperature 84 °F 84 °F 99 °F (1918)
Min Temperature 71 °F 64 °F 47 °F (1979)
Degree Days  
Heating Degree Days 0 0  
Month to date heating degree days 0 0  
Since 1 June heating degree days 5 19  
Since 1 July heating degree days 0 1  
Cooling Degree Days 13 9  
Month to date cooling degree days 125 117  
Year to date cooling degree days 837 748  
Since 1 June cooling degree days 756 667  
Growing Degree Days 28 (Base 50)    
Moisture  
Dew Point 72 °F    
Average Humidity 81    
Maximum Humidity 93    
Minimum Humidity 69    
Precipitation  
Precipitation 0.40 in 0.10 in 1.98 in (2016)
Month to date precipitation 1.48 1.25  
Year to date precipitation 31.16 22.96  
Snow  
Snow 0.00 in 0.00 in 0.00 in ()
Month to date snowfall 0.0 0.0  
Since 1 June snowfall 0.0 0.0  
Since 1 July snowfall 0.0 0.0  
Snow Depth 0.00 in    
Sea Level Pressure  
Sea Level Pressure 29.86 in    
Wind  
Wind Speed 5 mph (SSE)    
Max Wind Speed 17 mph    
Max Gust Speed 22 mph    
Visibility 7 miles    
Events Rain , Thunderstorm    
T = Trace of Precipitation, MM = Missing Value Source: NWS Daily Summary

Daily Weather History Graph

Daily Weather History Graph

Search for Another Location

Airport or City:

Astronomy

Aug. 12, 2019 Rise Set
Actual Time 6:06 AM CDT 8:00 PM CDT
Civil Twilight 5:36 AM CDT 8:30 PM CDT
Nautical Twilight 5:00 AM CDT 9:06 PM CDT
Astronomical Twilight 4:21 AM CDT 9:45 PM CDT
Moon 6:31 PM CDT (8/12) 3:14 AM CDT (8/12)
Length of Visible Light 14h 54m
Length of Day
13h 54m
Waxing Gibbous, 93% of the Moon is Illuminated
Aug 12
Waxing Gibbous
Aug 15
Full
Aug 23
Last Quarter
Aug 30
New
Sep 5
First Quarter

Hourly Weather History & Observations

Time (CDT) Temp. Heat Index Dew Point Humidity Pressure Visibility Wind Dir Wind Speed Gust Speed Precip Events Conditions
12:54 AM 72.0 °F - 70.0 °F 93% 29.93 in 10.0 mi Calm Calm - N/A   Partly Cloudy
1:54 AM 72.0 °F - 69.1 °F 91% 29.93 in 10.0 mi WSW 3.5 mph - N/A   Clear
2:18 AM 72.0 °F - 69.1 °F 91% 29.93 in 10.0 mi Calm Calm - N/A   Mostly Cloudy
2:39 AM 72.0 °F - 69.1 °F 91% 29.92 in 9.0 mi Calm Calm - N/A   Scattered Clouds
2:54 AM 72.0 °F - 69.1 °F 91% 29.91 in 8.0 mi Calm Calm - N/A   Scattered Clouds
3:54 AM 72.0 °F - 69.1 °F 91% 29.89 in 10.0 mi South 5.8 mph - N/A   Mostly Cloudy
4:22 AM 72.0 °F - 69.1 °F 91% 29.89 in 10.0 mi Calm Calm - N/A   Mostly Cloudy
4:37 AM 72.0 °F - 69.1 °F 91% 29.89 in 10.0 mi Calm Calm - N/A   Overcast
4:54 AM 72.0 °F - 69.1 °F 91% 29.87 in 10.0 mi Calm Calm - N/A   Overcast
5:54 AM 72.0 °F - 69.1 °F 91% 29.88 in 9.0 mi East 3.5 mph - N/A   Mostly Cloudy
6:54 AM 73.0 °F - 70.0 °F 90% 29.91 in 7.0 mi Calm Calm - N/A   Overcast
7:18 AM 73.0 °F - 70.0 °F 90% 29.92 in 6.0 mi Calm Calm - N/A   Overcast
7:36 AM 73.0 °F - 71.1 °F 93% 29.92 in 6.0 mi Calm Calm - N/A   Overcast
7:54 AM 73.0 °F - 71.1 °F 93% 29.90 in 5.0 mi East 3.5 mph - N/A   Mostly Cloudy
8:20 AM 73.9 °F - 71.1 °F 91% 29.92 in 5.0 mi Calm Calm - N/A   Mostly Cloudy
8:42 AM 73.9 °F - 71.1 °F 91% 29.93 in 7.0 mi Calm Calm - N/A   Overcast
8:54 AM 73.9 °F - 72.0 °F 93% 29.93 in 8.0 mi SW 4.6 mph - N/A   Overcast
9:46 AM 73.9 °F - 72.0 °F 93% 29.96 in 1.8 mi WSW 6.9 mph - 0.00 in Rain Rain
9:49 AM 73.4 °F - 71.6 °F 94% 29.96 in 1.2 mi SW 5.8 mph - 0.02 in Rain Heavy Rain
9:54 AM 73.9 °F - 72.0 °F 93% 29.95 in 1.2 mi WSW 8.1 mph - 0.07 in Rain , Thunderstorm Light Rain
9:56 AM 73.9 °F - 72.0 °F 93% 29.96 in 2.0 mi WSW 6.9 mph - 0.00 in Rain , Thunderstorm Light Rain
10:12 AM 73.9 °F - 72.0 °F 93% 29.96 in 3.0 mi WSW 5.8 mph - 0.05 in Rain Light Rain
10:18 AM 73.9 °F - 72.0 °F 93% 29.96 in 2.5 mi SW 8.1 mph - 0.05 in Rain , Thunderstorm Thunderstorms and Rain
10:26 AM 73.9 °F - 72.0 °F 93% 29.95 in 1.8 mi SW 6.9 mph - 0.09 in Rain , Thunderstorm Heavy Thunderstorms and Rain
10:32 AM 73.9 °F - 72.0 °F 93% 29.94 in 2.0 mi SW 5.8 mph - 0.11 in Rain , Thunderstorm Rain
10:40 AM 73.9 °F - 72.0 °F 93% 29.91 in 3.0 mi SSE 4.6 mph - 0.13 in Rain Light Rain
10:54 AM 73.9 °F - 72.0 °F 93% 29.82 in 2.5 mi East 13.8 mph - 0.14 in Rain Light Rain
11:03 AM 73.9 °F - 72.0 °F 93% 29.80 in 1.8 mi ESE 12.7 mph - 0.00 in Rain Light Rain
11:10 AM 73.9 °F - 72.0 °F 93% 29.81 in 3.0 mi ESE 10.4 mph - 0.00 in Rain Light Rain
11:39 AM 77.0 °F - 73.0 °F 88% 29.85 in 10.0 mi South 5.8 mph - 0.00 in   Scattered Clouds
11:54 AM 77.0 °F - 73.0 °F 88% 29.83 in 10.0 mi South 8.1 mph - 0.00 in   Mostly Cloudy
12:26 PM 79.0 °F - 73.0 °F 82% 29.83 in 10.0 mi South 9.2 mph - N/A   Mostly Cloudy
12:54 PM 81.0 °F 85.8 °F 73.0 °F 77% 29.81 in 10.0 mi South 11.5 mph - N/A   Scattered Clouds
1:15 PM 79.0 °F - 72.0 °F 79% 29.83 in 10.0 mi South 8.1 mph - N/A   Mostly Cloudy
1:23 PM 80.1 °F 83.8 °F 72.0 °F 76% 29.83 in 10.0 mi SSW 8.1 mph - N/A   Scattered Clouds
1:54 PM 80.1 °F 83.6 °F 71.1 °F 74% 29.82 in 10.0 mi SSW 4.6 mph - N/A   Mostly Cloudy
2:26 PM 80.1 °F 83.6 °F 71.1 °F 74% 29.84 in 10.0 mi ESE 4.6 mph - N/A   Overcast
2:54 PM 81.0 °F 85.2 °F 72.0 °F 74% 29.81 in 10.0 mi East 5.8 mph - N/A   Overcast
3:54 PM 82.0 °F 86.7 °F 72.0 °F 71% 29.80 in 10.0 mi East 8.1 mph - N/A   Overcast
4:19 PM 82.9 °F 88.8 °F 73.0 °F 72% 29.81 in 10.0 mi ENE 10.4 mph - N/A   Mostly Cloudy
4:54 PM 82.0 °F 87.4 °F 73.0 °F 74% 29.79 in 10.0 mi East 6.9 mph - N/A   Mostly Cloudy
5:54 PM 82.0 °F 87.4 °F 73.0 °F 74% 29.79 in 10.0 mi SE 4.6 mph - N/A   Overcast
6:54 PM 82.0 °F 87.9 °F 73.9 °F 76% 29.78 in 10.0 mi ESE 5.8 mph - N/A   Overcast
7:54 PM 80.1 °F 84.5 °F 73.9 °F 81% 29.78 in 10.0 mi ESE 3.5 mph - N/A   Overcast
8:54 PM 78.1 °F - 73.9 °F 87% 29.75 in 10.0 mi East 3.5 mph - N/A   Mostly Cloudy
9:54 PM 77.0 °F - 73.0 °F 88% 29.75 in 10.0 mi NE 3.5 mph - N/A   Clear
10:47 PM 77.0 °F - 73.9 °F 90% 29.77 in 10.0 mi NE 3.5 mph - N/A Thunderstorm Overcast
10:54 PM 77.0 °F - 73.9 °F 90% 29.76 in 7.0 mi NNW 4.6 mph - 0.00 in Rain , Thunderstorm Light Thunderstorms and Rain
11:00 PM 77.0 °F - 73.9 °F 90% 29.77 in 1.5 mi West 3.5 mph - 0.02 in Rain , Thunderstorm Heavy Thunderstorms and Rain
11:07 PM 75.9 °F - 73.9 °F 94% 29.77 in 1.0 mi Variable 3.5 mph - 0.17 in Rain , Thunderstorm Heavy Thunderstorms and Rain
11:11 PM 75.9 °F - 73.9 °F 94% 29.77 in 2.5 mi Calm Calm - 0.19 in Rain , Thunderstorm Light Thunderstorms and Rain
11:14 PM 75.9 °F - 73.9 °F 94% 29.78 in 5.0 mi Calm Calm - 0.19 in Rain , Thunderstorm Light Thunderstorms and Rain
11:22 PM 75.9 °F - 73.9 °F 94% 29.78 in 8.0 mi North 3.5 mph - 0.19 in Thunderstorm Overcast
11:39 PM 75.9 °F - 73.9 °F 94% 29.79 in 8.0 mi Calm Calm - 0.19 in   Overcast
11:54 PM 75.9 °F - 73.9 °F 94% 29.78 in 4.0 mi North 4.6 mph - 0.19 in   Overcast